Time,TemperatureF,DewpointF,PressureIn,WindDirection,WindDirectionDegrees,WindSpeedMPH,WindSpeedGustMPH,Humidity,HourlyPrecipIn,Conditions,Clouds,dailyrainin,SoftwareType,DateUTC
2013-01-09 00:14:00,63.3,62.0,30.15,SE,129,7.0,-999.0,96,-99.99,,,0.00,weatherlink.com 1.10,2013-01-09 06:14:00,
2013-01-09 00:27:00,63.4,62.0,30.15,ESE,114,1.0,-999.0,95,-99.99,,,0.00,weatherlink.com 1.10,2013-01-09 06:27:00,
2013-01-09 00:42:00,63.4,62.0,30.15,ESE,115,2.0,-999.0,95,-99.99,,,0.00,weatherlink.com 1.10,2013-01-09 06:42:00,
2013-01-09 00:57:00,63.5,62.0,30.15,ESE,111,11.0,-999.0,96,-99.99,,,0.00,weatherlink.com 1.10,2013-01-09 06:57:00,
2013-01-09 01:12:00,63.5,62.0,30.15,ENE,66,5.0,-999.0,96,-99.99,,,0.00,weatherlink.com 1.10,2013-01-09 07:12:00,
2013-01-09 01:27:00,63.4,62.0,30.16,ESE,119,7.0,-999.0,96,-99.99,,,0.00,weatherlink.com 1.10,2013-01-09 07:27:00,
2013-01-09 01:44:00,63.5,62.0,30.15,ESE,107,1.0,-999.0,96,-99.99,,,0.00,weatherlink.com 1.10,2013-01-09 07:44:00,
2013-01-09 01:57:00,63.3,62.0,30.15,East,96,0.0,-999.0,95,-99.99,,,0.00,weatherlink.com 1.10,2013-01-09 07:57:00,
2013-01-09 02:12:00,63.0,62.0,30.15,East,89,0.0,-999.0,95,-99.99,,,0.00,weatherlink.com 1.10,2013-01-09 08:12:00,
2013-01-09 02:28:00,62.5,61.0,30.16,East,82,0.0,-999.0,95,-99.99,,,0.00,weatherlink.com 1.10,2013-01-09 08:28:00,
2013-01-09 02:44:00,62.4,61.0,30.16,East,86,2.0,-999.0,96,-99.99,,,0.00,weatherlink.com 1.10,2013-01-09 08:44:00,
2013-01-09 02:58:00,62.7,62.0,30.15,East,82,2.0,-999.0,97,-99.99,,,0.00,weatherlink.com 1.10,2013-01-09 08:58:00,
2013-01-09 03:13:00,62.6,62.0,30.14,East,82,3.0,-999.0,96,-99.99,,,0.00,weatherlink.com 1.10,2013-01-09 09:13:00,
2013-01-09 03:28:00,62.3,61.0,30.14,East,86,5.0,-999.0,96,-99.99,,,0.00,weatherlink.com 1.10,2013-01-09 09:28:00,
2013-01-09 03:42:00,62.2,61.0,30.14,SE,139,6.0,-999.0,96,-99.99,,,0.00,weatherlink.com 1.10,2013-01-09 09:42:00,
2013-01-09 03:57:00,62.2,61.0,30.14,ESE,107,6.0,-999.0,96,-99.99,,,0.00,weatherlink.com 1.10,2013-01-09 09:57:00,
2013-01-09 04:13:00,62.4,62.0,30.14,East,81,0.0,-999.0,97,-99.99,,,0.00,weatherlink.com 1.10,2013-01-09 10:13:00,
2013-01-09 04:28:00,62.5,62.0,30.12,East,82,4.0,-999.0,97,-99.99,,,0.00,weatherlink.com 1.10,2013-01-09 10:28:00,
2013-01-09 04:43:00,62.6,62.0,30.11,SE,133,4.0,-999.0,97,-99.99,,,0.00,weatherlink.com 1.10,2013-01-09 10:43:00,
2013-01-09 04:58:00,62.9,62.0,30.11,SE,138,7.0,-999.0,96,-99.99,,,0.00,weatherlink.com 1.10,2013-01-09 10:58:00,
2013-01-09 05:13:00,63.2,62.0,30.12,SE,132,4.0,-999.0,97,-99.99,,,0.00,weatherlink.com 1.10,2013-01-09 11:13:00,
2013-01-09 05:28:00,63.6,63.0,30.12,SE,124,7.0,-999.0,96,-99.99,,,0.00,weatherlink.com 1.10,2013-01-09 11:28:00,
2013-01-09 05:43:00,63.8,62.0,30.12,ESE,117,4.0,-999.0,95,-99.99,,,0.00,weatherlink.com 1.10,2013-01-09 11:43:00,
2013-01-09 05:58:00,63.8,62.0,30.12,SE,140,5.0,-999.0,95,-99.99,,,0.00,weatherlink.com 1.10,2013-01-09 11:58:00,
2013-01-09 06:14:00,64.0,63.0,30.13,SE,138,5.0,-999.0,95,-99.99,,,0.00,weatherlink.com 1.10,2013-01-09 12:14:00,
2013-01-09 06:28:00,64.0,63.0,30.14,ESE,114,11.0,-999.0,95,-99.99,,,0.00,weatherlink.com 1.10,2013-01-09 12:28:00,
2013-01-09 06:43:00,64.0,63.0,30.14,ESE,105,5.0,-999.0,95,-99.99,,,0.00,weatherlink.com 1.10,2013-01-09 12:43:00,
2013-01-09 06:58:00,63.8,62.0,30.16,East,98,5.0,-999.0,95,-99.99,,,0.00,weatherlink.com 1.10,2013-01-09 12:58:00,
2013-01-09 07:13:00,63.7,63.0,30.16,SE,134,11.0,-999.0,96,-99.99,,,0.00,weatherlink.com 1.10,2013-01-09 13:13:00,
2013-01-09 07:28:00,64.0,63.0,30.16,East,101,5.0,-999.0,96,-99.99,,,0.00,weatherlink.com 1.10,2013-01-09 13:28:00,
2013-01-09 07:43:00,64.3,63.0,30.18,SE,140,5.0,-999.0,96,-99.99,,,0.00,weatherlink.com 1.10,2013-01-09 13:43:00,
2013-01-09 07:59:00,64.7,64.0,30.18,SE,136,7.0,-999.0,97,-99.99,,,0.00,weatherlink.com 1.10,2013-01-09 13:59:00,
2013-01-09 08:14:00,65.1,64.0,30.18,East,96,5.0,-999.0,97,-99.99,,,0.00,weatherlink.com 1.10,2013-01-09 14:14:00,
2013-01-09 08:29:00,65.5,64.0,30.18,East,91,13.0,-999.0,96,-99.99,,,0.00,weatherlink.com 1.10,2013-01-09 14:29:00,
2013-01-09 08:44:00,65.8,65.0,30.18,ESE,111,11.0,-999.0,96,-99.99,,,0.00,weatherlink.com 1.10,2013-01-09 14:44:00,
2013-01-09 08:59:00,65.9,65.0,30.18,ESE,119,4.0,-999.0,96,-99.99,,,0.00,weatherlink.com 1.10,2013-01-09 14:59:00,
2013-01-09 09:14:00,66.0,65.0,30.19,SE,142,6.0,-999.0,96,-99.99,,,0.00,weatherlink.com 1.10,2013-01-09 15:14:00,
2013-01-09 09:29:00,66.3,65.0,30.19,ESE,107,15.0,-999.0,96,-99.99,,,0.00,weatherlink.com 1.10,2013-01-09 15:29:00,
2013-01-09 09:44:00,66.4,65.0,30.19,SE,141,9.0,-999.0,95,-99.99,,,0.00,weatherlink.com 1.10,2013-01-09 15:44:00,
2013-01-09 09:59:00,66.5,65.0,30.19,South,171,4.0,-999.0,95,-99.99,,,0.00,weatherlink.com 1.10,2013-01-09 15:59:00,
2013-01-09 10:14:00,66.6,65.0,30.19,East,82,8.0,-999.0,95,-99.99,,,0.00,weatherlink.com 1.10,2013-01-09 16:14:00,
2013-01-09 10:29:00,66.7,65.0,30.19,ESE,121,14.0,-999.0,95,-99.99,,,0.00,weatherlink.com 1.10,2013-01-09 16:29:00,
2013-01-09 10:44:00,67.0,66.0,30.19,ESE,102,6.0,-999.0,95,-99.99,,,0.00,weatherlink.com 1.10,2013-01-09 16:44:00,
2013-01-09 10:59:00,67.5,66.0,30.20,SE,130,9.0,-999.0,95,-99.99,,,0.00,weatherlink.com 1.10,2013-01-09 16:59:00,
2013-01-09 11:15:00,68.1,66.0,30.20,SE,128,9.0,-999.0,94,-99.99,,,0.00,weatherlink.com 1.10,2013-01-09 17:15:00,
2013-01-09 11:29:00,68.4,67.0,30.19,ENE,60,12.0,-999.0,94,-99.99,,,0.00,weatherlink.com 1.10,2013-01-09 17:29:00,
2013-01-09 11:46:00,68.6,67.0,30.18,East,92,8.0,-999.0,93,-99.99,,,0.00,weatherlink.com 1.10,2013-01-09 17:46:00,
2013-01-09 11:59:00,68.6,67.0,30.17,ENE,71,6.0,-999.0,93,-99.99,,,0.00,weatherlink.com 1.10,2013-01-09 17:59:00,
2013-01-09 12:14:00,68.8,67.0,30.16,East,83,13.0,-999.0,93,-99.99,,,0.00,weatherlink.com 1.10,2013-01-09 18:14:00,
2013-01-09 12:29:00,68.7,67.0,30.16,East,99,9.0,-999.0,93,-99.99,,,0.00,weatherlink.com 1.10,2013-01-09 18:29:00,
2013-01-09 12:44:00,68.6,67.0,30.15,SE,127,7.0,-999.0,94,-99.99,,,0.00,weatherlink.com 1.10,2013-01-09 18:44:00,
2013-01-09 12:59:00,68.8,67.0,30.15,East,98,13.0,-999.0,94,-99.99,,,0.00,weatherlink.com 1.10,2013-01-09 18:59:00,
2013-01-09 13:15:00,68.9,67.0,30.15,ESE,117,15.0,-999.0,94,-99.99,,,0.00,weatherlink.com 1.10,2013-01-09 19:15:00,
2013-01-09 13:31:00,69.2,68.0,30.14,East,79,7.0,-999.0,94,-99.99,,,0.00,weatherlink.com 1.10,2013-01-09 19:31:00,
2013-01-09 13:45:00,69.3,67.0,30.13,ESE,104,7.0,-999.0,93,-99.99,,,0.00,weatherlink.com 1.10,2013-01-09 19:45:00,
2013-01-09 13:59:00,69.4,67.0,30.13,SE,136,4.0,-999.0,93,-99.99,,,0.00,weatherlink.com 1.10,2013-01-09 19:59:00,
2013-01-09 14:14:00,69.4,68.0,30.14,SE,128,9.0,-999.0,94,-99.99,,,0.00,weatherlink.com 1.10,2013-01-09 20:14:00,
2013-01-09 14:30:00,69.3,68.0,30.14,East,83,7.0,-999.0,94,-99.99,,,0.00,weatherlink.com 1.10,2013-01-09 20:30:00,
2013-01-09 14:44:00,69.2,68.0,30.13,ENE,70,8.0,-999.0,94,-99.99,,,0.00,weatherlink.com 1.10,2013-01-09 20:44:00,
2013-01-09 14:59:00,69.1,67.0,30.14,East,79,7.0,-999.0,94,-99.99,,,0.00,weatherlink.com 1.10,2013-01-09 20:59:00,
2013-01-09 15:14:00,68.8,67.0,30.13,SSE,162,5.0,-999.0,95,-99.99,,,0.00,weatherlink.com 1.10,2013-01-09 21:14:00,
2013-01-09 15:29:00,68.7,67.0,30.13,ENE,78,4.0,-999.0,95,-99.99,,,0.00,weatherlink.com 1.10,2013-01-09 21:29:00,
2013-01-09 15:44:00,68.8,67.0,30.14,SE,127,17.0,-999.0,95,-99.99,,,0.00,weatherlink.com 1.10,2013-01-09 21:44:00,
2013-01-09 15:59:00,68.7,67.0,30.14,ESE,113,5.0,-999.0,95,-99.99,,,0.00,weatherlink.com 1.10,2013-01-09 21:59:00,
2013-01-09 16:14:00,68.5,67.0,30.15,SE,138,14.0,-999.0,95,-99.99,,,0.00,weatherlink.com 1.10,2013-01-09 22:14:00,
2013-01-09 16:29:00,68.4,67.0,30.15,East,98,8.0,-999.0,96,-99.99,,,0.00,weatherlink.com 1.10,2013-01-09 22:29:00,
2013-01-09 16:44:00,68.3,67.0,30.15,ESE,112,6.0,-999.0,96,-99.99,,,0.00,weatherlink.com 1.10,2013-01-09 22:44:00,
2013-01-09 16:59:00,68.2,67.0,30.16,ESE,102,7.0,-999.0,96,-99.99,,,0.00,weatherlink.com 1.10,2013-01-09 22:59:00,
2013-01-09 17:14:00,68.0,67.0,30.16,ESE,107,9.0,-999.0,97,-99.99,,,0.00,weatherlink.com 1.10,2013-01-09 23:14:00,
2013-01-09 17:29:00,67.8,67.0,30.15,East,85,12.0,-999.0,97,-99.99,,,0.00,weatherlink.com 1.10,2013-01-09 23:29:00,
2013-01-09 17:44:00,67.6,67.0,30.15,ENE,63,8.0,-999.0,97,-99.99,,,0.00,weatherlink.com 1.10,2013-01-09 23:44:00,
2013-01-09 17:59:00,67.4,67.0,30.16,SE,138,10.0,-999.0,97,-99.99,,,0.00,weatherlink.com 1.10,2013-01-09 23:59:00,
2013-01-09 18:14:00,67.3,67.0,30.16,ESE,115,11.0,-999.0,97,-99.99,,,0.00,weatherlink.com 1.10,2013-01-10 00:14:00,
2013-01-09 18:29:00,67.3,67.0,30.16,ESE,108,9.0,-999.0,98,-99.99,,,0.00,weatherlink.com 1.10,2013-01-10 00:29:00,
2013-01-09 18:45:00,67.3,67.0,30.18,SE,146,4.0,-999.0,98,-99.99,,,0.00,weatherlink.com 1.10,2013-01-10 00:45:00,
2013-01-09 18:59:00,67.3,67.0,30.18,ESE,119,8.0,-999.0,98,-99.99,,,0.00,weatherlink.com 1.10,2013-01-10 00:59:00,
2013-01-09 19:14:00,67.4,67.0,30.18,ESE,107,2.0,-999.0,98,-99.99,,,0.00,weatherlink.com 1.10,2013-01-10 01:14:00,
2013-01-09 19:29:00,67.3,67.0,30.19,SE,129,7.0,-999.0,98,-99.99,,,0.00,weatherlink.com 1.10,2013-01-10 01:29:00,
2013-01-09 19:45:00,67.3,67.0,30.19,ESE,107,6.0,-999.0,98,-99.99,,,0.00,weatherlink.com 1.10,2013-01-10 01:45:00,
2013-01-09 20:00:00,67.2,67.0,30.19,ESE,109,15.0,-999.0,98,-99.99,,,0.00,weatherlink.com 1.10,2013-01-10 02:00:00,
2013-01-09 20:15:00,67.2,67.0,30.19,ESE,121,6.0,-999.0,98,-99.99,,,0.00,weatherlink.com 1.10,2013-01-10 02:15:00,
2013-01-09 20:30:00,67.2,67.0,30.19,ESE,103,14.0,-999.0,98,-99.99,,,0.00,weatherlink.com 1.10,2013-01-10 02:30:00,
2013-01-09 20:45:00,67.2,67.0,30.19,ENE,76,10.0,-999.0,99,-99.99,,,0.00,weatherlink.com 1.10,2013-01-10 02:45:00,
2013-01-09 21:00:00,67.4,67.0,30.19,SE,129,5.0,-999.0,99,-99.99,,,0.00,weatherlink.com 1.10,2013-01-10 03:00:00,
2013-01-09 21:15:00,67.5,67.0,30.19,ESE,116,9.0,-999.0,99,-99.99,,,0.00,weatherlink.com 1.10,2013-01-10 03:15:00,
2013-01-09 21:31:00,67.4,67.0,30.20,SE,140,6.0,-999.0,99,-99.99,,,0.00,weatherlink.com 1.10,2013-01-10 03:31:00,
2013-01-09 22:00:00,67.1,67.0,30.20,SE,145,8.0,-999.0,99,-99.99,,,0.00,weatherlink.com 1.10,2013-01-10 04:00:00,
2013-01-09 22:15:00,67.0,67.0,30.21,SE,137,7.0,-999.0,99,-99.99,,,0.00,weatherlink.com 1.10,2013-01-10 04:15:00,
2013-01-09 22:31:00,66.8,67.0,30.20,SSE,159,7.0,-999.0,99,-99.99,,,0.00,weatherlink.com 1.10,2013-01-10 04:31:00,
2013-01-09 22:46:00,66.8,67.0,30.20,SE,132,8.0,-999.0,99,-99.99,,,0.00,weatherlink.com 1.10,2013-01-10 04:46:00,
2013-01-09 23:00:00,66.8,67.0,30.20,East,85,6.0,-999.0,99,-99.99,,,0.00,weatherlink.com 1.10,2013-01-10 05:00:00,
2013-01-09 23:15:00,67.1,67.0,30.20,ESE,119,11.0,-999.0,99,-99.99,,,0.00,weatherlink.com 1.10,2013-01-10 05:15:00,